Stündliche Wetter Kyzylkayyn

Heute, 16 Mai, Sonntag

Zeit Temperatur Niederschläge Wind Luftdruck Luftfeuchtigkeit
00:00 +12°C° 0 mm 2 m/S 716 mmHg 65%
01:00 +12°C° 0 mm 2 m/S 716 mmHg 66%
02:00 +12°C° 0 mm 1 m/S 716 mmHg 66%
03:00 +12°C° 0 mm 1 m/S 716 mmHg 65%
04:00 +12°C° 0 mm 2 m/S 717 mmHg 64%
05:00 +12°C° 0 mm 2 m/S 717 mmHg 63%
06:00 +14°C° 0 mm 2 m/S 717 mmHg 57%
07:00 +16°C° 0 mm 1 m/S 717 mmHg 51%
08:00 +19°C° 0 mm 1 m/S 717 mmHg 45%
09:00 +20°C° 0 mm 1 m/S 717 mmHg 43%
10:00 +22°C° 0 mm 1 m/S 717 mmHg 40%
11:00 +23°C° 0 mm 1 m/S 717 mmHg 37%
12:00 +23°C° 0 mm 1 m/S 717 mmHg 35%
13:00 +24°C° 0 mm 2 m/S 716 mmHg 34%
14:00 +25°C° 0 mm 2 m/S 716 mmHg 32%
15:00 +24°C° 0 mm 2 m/S 716 mmHg 35%
16:00 +24°C° 0 mm 2 m/S 716 mmHg 37%
17:00 +23°C° 0 mm 2 m/S 716 mmHg 40%
18:00 +20°C° 0 mm 2 m/S 716 mmHg 45%
19:00 +18°C° 0 mm 3 m/S 716 mmHg 51%
20:00 +16°C° 0 mm 3 m/S 716 mmHg 57%
21:00 +16°C° 0 mm 3 m/S 716 mmHg 57%
22:00 +14°C° 0 mm 3 m/S 716 mmHg 58%
23:00 +14°C° 0 mm 3 m/S 716 mmHg 58%

Morgen, 17 Mai, Montag

Zeit Temperatur Niederschläge Wind Luftdruck Luftfeuchtigkeit
00:00 +13°C° 0 mm 3 m/S 716 mmHg 58%
01:00 +13°C° 0 mm 3 m/S 716 mmHg 57%
02:00 +13°C° 0 mm 3 m/S 716 mmHg 56%
03:00 +13°C° 0 mm 3 m/S 716 mmHg 56%
04:00 +13°C° 0 mm 3 m/S 716 mmHg 55%
05:00 +13°C° 0 mm 3 m/S 716 mmHg 55%
06:00 +17°C° 0 mm 2 m/S 716 mmHg 49%
07:00 +19°C° 0 mm 2 m/S 717 mmHg 44%
08:00 +22°C° 0 mm 1 m/S 717 mmHg 38%
09:00 +24°C° 0 mm 1 m/S 717 mmHg 34%
10:00 +25°C° 0 mm 2 m/S 717 mmHg 31%
11:00 +26°C° 0 mm 2 m/S 717 mmHg 27%
12:00 +27°C° 0 mm 1 m/S 716 mmHg 26%
13:00 +27°C° 0 mm 1 m/S 716 mmHg 24%
14:00 +28°C° 0 mm 1 m/S 716 mmHg 23%
15:00 +28°C° 0 mm 1 m/S 716 mmHg 23%
16:00 +28°C° 0 mm 1 m/S 716 mmHg 24%
17:00 +27°C° 0 mm 2 m/S 715 mmHg 25%
18:00 +25°C° 0 mm 2 m/S 715 mmHg 30%
19:00 +23°C° 0 mm 2 m/S 715 mmHg 36%
20:00 +20°C° 0 mm 2 m/S 715 mmHg 42%
21:00 +19°C° 0 mm 2 m/S 715 mmHg 45%
22:00 +18°C° 0 mm 2 m/S 715 mmHg 48%
23:00 +17°C° 0 mm 2 m/S 715 mmHg 51%

übermorgen, 18 Mai, Dienstag

Zeit Temperatur Niederschläge Wind Luftdruck Luftfeuchtigkeit
00:00 +17°C° 0 mm 2 m/S 714 mmHg 51%
01:00 +16°C° 0 mm 2 m/S 714 mmHg 51%
02:00 +16°C° 0 mm 2 m/S 714 mmHg 51%
03:00 +16°C° 0 mm 2 m/S 714 mmHg 51%
04:00 +16°C° 0 mm 2 m/S 714 mmHg 51%
05:00 +16°C° 0 mm 2 m/S 714 mmHg 51%
06:00 +18°C° 0 mm 2 m/S 714 mmHg 48%
07:00 +20°C° 0 mm 2 m/S 714 mmHg 45%
08:00 +23°C° 0 mm 2 m/S 714 mmHg 42%
09:00 +24°C° 0 mm 2 m/S 714 mmHg 39%
10:00 +26°C° 0 mm 2 m/S 713 mmHg 37%
11:00 +27°C° 0 mm 3 m/S 713 mmHg 34%
12:00 +27°C° 0 mm 2 m/S 713 mmHg 33%
13:00 +28°C° 0 mm 2 m/S 713 mmHg 31%
14:00 +28°C° 0 mm 2 m/S 712 mmHg 29%
15:00 +28°C° 0 mm 2 m/S 712 mmHg 29%
16:00 +28°C° 0 mm 2 m/S 712 mmHg 28%
17:00 +28°C° 0 mm 2 m/S 712 mmHg 27%
18:00 +26°C° 0 mm 2 m/S 712 mmHg 31%
19:00 +24°C° 0 mm 2 m/S 711 mmHg 35%
20:00 +21°C° 0 mm 2 m/S 711 mmHg 38%
21:00 +20°C° 0 mm 2 m/S 711 mmHg 43%
22:00 +19°C° 0 mm 2 m/S 710 mmHg 47%
23:00 +18°C° 0 mm 2 m/S 710 mmHg 51%

19 Mai, Mittwoch

Zeit Temperatur Niederschläge Wind Luftdruck Luftfeuchtigkeit
00:00 +18°C° 0 mm 2 m/S 710 mmHg 53%
01:00 +17°C° 0 mm 2 m/S 710 mmHg 54%
02:00 +17°C° 0 mm 2 m/S 710 mmHg 55%
03:00 +17°C° 0 mm 2 m/S 709 mmHg 54%
04:00 +17°C° 0 mm 2 m/S 709 mmHg 54%
05:00 +17°C° 0 mm 2 m/S 709 mmHg 53%
06:00 +21°C° 0 mm 1 m/S 709 mmHg 47%
07:00 +23°C° 0 mm 1 m/S 709 mmHg 42%
08:00 +24°C° 0 mm 0 m/S 709 mmHg 36%
09:00 +27°C° 0 mm 1 m/S 709 mmHg 32%
10:00 +28°C° 0 mm 1 m/S 709 mmHg 28%
11:00 +29°C° 0 mm 2 m/S 709 mmHg 24%
12:00 +30°C° 0 mm 2 m/S 708 mmHg 24%
13:00 +30°C° 0 mm 3 m/S 708 mmHg 23%
14:00 +32°C° 0 mm 4 m/S 708 mmHg 22%
15:00 +30°C° 0 mm 4 m/S 707 mmHg 25%
16:00 +29°C° 0 mm 4 m/S 707 mmHg 27%
17:00 +29°C° 0 mm 4 m/S 707 mmHg 30%
18:00 +26°C° 0.1 mm 5 m/S 707 mmHg 39%
19:00 +23°C° 0.1 mm 6 m/S 708 mmHg 47%
20:00 +20°C° 0.1 mm 7 m/S 708 mmHg 56%
21:00 +19°C° 0.3 mm 6 m/S 708 mmHg 64%
22:00 +17°C° 0.3 mm 4 m/S 708 mmHg 72%
23:00 +16°C° 0.3 mm 3 m/S 708 mmHg 80%

20 Mai, Donnerstag

Zeit Temperatur Niederschläge Wind Luftdruck Luftfeuchtigkeit
00:00 +16°C° 0.1 mm 2 m/S 708 mmHg 80%
01:00 +15°C° 0.1 mm 1 m/S 708 mmHg 80%
02:00 +15°C° 0.1 mm 1 m/S 709 mmHg 81%
03:00 +14°C° 0.4 mm 2 m/S 709 mmHg 83%
04:00 +13°C° 0.4 mm 4 m/S 710 mmHg 85%
05:00 +12°C° 0.4 mm 5 m/S 711 mmHg 87%
06:00 +10°C° 1.1 mm 5 m/S 712 mmHg 81%
07:00 +11°C° 1.1 mm 4 m/S 712 mmHg 76%
08:00 +11°C° 1.1 mm 4 m/S 713 mmHg 71%
09:00 +11°C° 0.3 mm 3 m/S 714 mmHg 67%
10:00 +12°C° 0.3 mm 3 m/S 714 mmHg 62%
11:00 +13°C° 0.3 mm 2 m/S 715 mmHg 57%
12:00 +14°C° 0 mm 2 m/S 715 mmHg 52%
13:00 +16°C° 0 mm 2 m/S 715 mmHg 46%
14:00 +17°C° 0 mm 3 m/S 715 mmHg 40%
15:00 +17°C° 0 mm 3 m/S 715 mmHg 37%
16:00 +17°C° 0 mm 3 m/S 715 mmHg 35%
17:00 +18°C° 0 mm 3 m/S 715 mmHg 32%
18:00 +16°C° 0 mm 3 m/S 716 mmHg 38%
19:00 +13°C° 0 mm 3 m/S 716 mmHg 45%
20:00 +12°C° 0 mm 2 m/S 716 mmHg 51%
21:00 +11°C° 0 mm 3 m/S 717 mmHg 49%
22:00 +10°C° 0 mm 3 m/S 717 mmHg 47%
23:00 +8°C° 0 mm 4 m/S 717 mmHg 44%

21 Mai, Freitag

Zeit Temperatur Niederschläge Wind Luftdruck Luftfeuchtigkeit
00:00 +8°C° 0 mm 3 m/S 717 mmHg 44%
01:00 +8°C° 0 mm 3 m/S 717 mmHg 45%
02:00 +7°C° 0 mm 3 m/S 718 mmHg 45%
03:00 +7°C° 0 mm 3 m/S 718 mmHg 45%
04:00 +7°C° 0 mm 2 m/S 718 mmHg 46%
05:00 +7°C° 0 mm 2 m/S 718 mmHg 47%
06:00 +8°C° 0 mm 3 m/S 718 mmHg 40%
07:00 +10°C° 0 mm 4 m/S 718 mmHg 34%
08:00 +12°C° 0 mm 5 m/S 718 mmHg 28%
09:00 +14°C° 0 mm 5 m/S 718 mmHg 27%
10:00 +15°C° 0 mm 5 m/S 718 mmHg 26%
11:00 +17°C° 0 mm 5 m/S 718 mmHg 25%
12:00 +19°C° 0 mm 5 m/S 718 mmHg 25%
13:00 +20°C° 0 mm 5 m/S 717 mmHg 25%
14:00 +21°C° 0 mm 5 m/S 717 mmHg 25%
15:00 +21°C° 0 mm 5 m/S 717 mmHg 27%
16:00 +20°C° 0 mm 5 m/S 717 mmHg 29%
17:00 +20°C° 0 mm 5 m/S 717 mmHg 31%
18:00 +17°C° 0 mm 5 m/S 717 mmHg 36%
19:00 +15°C° 0 mm 4 m/S 717 mmHg 41%
20:00 +13°C° 0 mm 4 m/S 717 mmHg 46%
21:00 +13°C° 0 mm 3 m/S 717 mmHg 48%
22:00 +12°C° 0 mm 3 m/S 717 mmHg 50%
23:00 +11°C° 0 mm 3 m/S 716 mmHg 52%
Mehr zeigen

Wir brauchen deine Erlaubnis

Meteoprog und unser Service Anbieter werden persönliche Daten aufbewahren, so wie Cookies, Geräte Bezeichnung oder ähnliche Technologien von deinem Gerät und Prozess, so wie Persönliche Daten Inhalte und Werbungen, genauso wie social Media und den Verkehr zu analysieren.

  • Aufbewahrung und/oder Zugang zu deiner Geräte Informationen.

    Cookies, Geräte Bezeichnung oder andere Informationen, können aufbewahrt oder Zugang zu deinem Gerät erhalten, für den Grund, der oben angegeben wird.

  • Personalisierte Werbung und Inhalte, Messungen, Einblick in das Publikum und Produkt Entwicklung.

    Werbungen und Inhalte können personalisiert werden, basierend auf ein Profil. Mehr Daten können besser personalisierte Werbungen und Inhalte hinzufügen. Werbung und Inhalte können gezeigt und gemessen werden. Einblicke über das Publikum, welche die Werbung gesehen haben und den Inhalt, können abgeleitet werden. So wie Daten können genutzt werden, um es zu verbessern oder die Benutzer Erfahrung zu verbessern das System und die Software.

Wenn du “Ich stimme zu” klickst, erlaubst du uns, die Cookies zu benutzen die Geräte Bezeichnung, den Web oder ähnliche Technologien zu benutzen. Deine Settings, können in deinem Gerät bei deinem Browser geändert werden.

Für den bestimmten Zweck, berechtigten Interessen beruhen darauf, mehr als auf den Inhalt. Du kannst mehr darüber in unseren Privaten und Cookie Politik lesen.